Location: Huntsville
(41.2590°N, 111.7678°W)
Time: 08:11:15
(UTC+00:00)

BlueWalker 3 - Pass Details

Date: 06 December 2022
Orbit: 499 x 517 km, 53.2° (Epoch: 07 February)

Event Time Altitude Azimuth Distance (km) Brightness Sun altitude
Rises 00:34:59 0° 306° (NW) 2,632 6.0 -7.0°
Reaches altitude 10° 00:38:01 10° 330° (NNW) 1,739 4.8 -7.6°
Maximum altitude 00:40:18 15° 6° (N) 1,456 4.0 -8.0°
Drops below altitude 10° 00:42:35 10° 42° (NE) 1,730 4.1 -8.4°
Enters shadow 00:42:51 - 45° (NE) 1,789 4.2 -8.4°
